Tracking 28081 objects as of 27-Sep-2023
HD Live streaming from Space Station
objects crossing your sky now

STARLINK-5598

Track STARLINK-5598 now!
10-day predictions
STARLINK-5598 is classified as:


NORAD ID: 55421
Int'l Code: 2023-014AG
Perigee: 577.1 km
Apogee: 581.2 km
Inclination: 70.0 °
Period: 96.1 minutes
Semi major axis: 6950 km
RCS: Unknown
Launch date: January 31, 2023
Source: United States (US)
Launch site: AIR FORCE WESTERN TEST RANGE (AFWTR)
Your satellite tracking list
Your tracking list is empty




NASA's NSSDC Master Catalog

Two Line Element Set (TLE):
1 55421U 23014AG  23269.17865987  .00002481  00000-0  21558-3 0  9999
2 55421  70.0015 182.3444 0002979 268.8077  91.2741 14.98347017 37427
Source of the keplerian elements: AFSPC